SHIJIAN-17 (SJ-17)

Last updated on Mon Sep 07 2026 00:03:00 GMT+0000 (Coordinated Universal Time)

1 41838U 16065A 26249.47239448 -.00000345 00000+0 00000+0 0 9997 2 41838 5.9533 71.5823 0001723 80.1551 120.8397 0.99860466 36018
UTC large
Height (km)
Speed (km/s)
/
Latitude / Longitude
Inclination (degrees)
Orbital Period (minutes)
Azimuth
Elevation
Range (km)
Doppler Factor

Next 0 passes for location: London (51.5072 / 0.1276)

No passes found over London.
SHIJIAN-17 (SJ-17)